This is the latest recevied weather packets stored in our database for station/object KQ4JKJ. If no packets are shown the sender has not sent any weather packets the latest 10 day(s).
| Time | Temp. | Humidity | Pressure | Rain* | Wind** | Luminosity | Snow |
|---|---|---|---|---|---|---|---|
| 1777905393 | 26.11° C | 63% | 1011.9 hPa | 0 mm | - | 288 W/m² | - |
| 1777905091 | 26.67° C | 60% | 1011.9 hPa | 0 mm | - | 626 W/m² | - |
| 1777904788 | 25.56° C | 63% | 1011.7 hPa | 0 mm | - | 668 W/m² | - |
| 1777904485 | 25.56° C | 63% | 1011.6 hPa | 0 mm | - | 655 W/m² | - |
| 1777904181 | 26.11° C | 62% | 1011.5 hPa | 0 mm | - | 425 W/m² | - |
| 1777903879 | 26.11° C | 63% | 1011.6 hPa | 0 mm | - | 671 W/m² | - |
| 1777903576 | 25.56° C | 65% | 1011.4 hPa | 0 mm | - | 614 W/m² | - |
| 1777903271 | 25.56° C | 65% | 1011.5 hPa | 0 mm | - | 540 W/m² | - |
| 1777902968 | 25.56° C | 64% | 1011.5 hPa | 0 mm | - | 510 W/m² | - |
| 1777902665 | 25.56° C | 65% | 1011.4 hPa | 0 mm | - | 504 W/m² | - |
| 1777902362 | 25° C | 67% | 1011.3 hPa | 0 mm | - | 484 W/m² | - |
| 1777902059 | 24.44° C | 68% | 1011.3 hPa | 0 mm | - | 457 W/m² | - |
| 1777901757 | 24.44° C | 69% | 1011.2 hPa | 0 mm | - | 254 W/m² | - |
| 1777901454 | 23.89° C | 70% | 1011.2 hPa | 0 mm | - | 420 W/m² | - |
| 1777901152 | 23.89° C | 70% | 1011.3 hPa | 0 mm | - | 162 W/m² | - |
| 1777900849 | 23.89° C | 71% | 1011 hPa | 0 mm | - | 258 W/m² | - |
| 1777900546 | 23.33° C | 73% | 1011.2 hPa | 0 mm | - | 199 W/m² | - |
| 1777900243 | 23.89° C | 72% | 1011 hPa | 0 mm | - | 180 W/m² | - |
| 1777899939 | 23.89° C | 73% | 1011.1 hPa | 0 mm | - | 252 W/m² | - |
| 1777899637 | 23.89° C | 73% | 1010.9 hPa | 0 mm | - | 228 W/m² | - |
| 1777899334 | 23.89° C | 74% | 1010.9 hPa | 0 mm | - | 122 W/m² | - |
| 1777899032 | 23.89° C | 72% | 1010.9 hPa | 0 mm | - | 152 W/m² | - |
| 1777898728 | 23.33° C | 74% | 1010.5 hPa | 0 mm | - | 268 W/m² | - |
| 1777898426 | 23.89° C | 73% | 1010.6 hPa | 0 mm | - | 74 W/m² | - |
| 1777898124 | 23.89° C | 74% | 1010.6 hPa | 0 mm | - | 219 W/m² | - |
* Rain latest hour (hover to see other rain measurements)
** Current wind speed in m/s (hover to see current wind gust speed)